{"data":{"norad_id":41945,"intl_designator":"2017-007B","name":"INTELSAT 32E (IS-32E)","alt_names":[],"object_type":"PAYLOAD","status":"ACTIVE","operator":null,"country":"ITSO","launch_date":"2017-02-14","launch_site_code":"FRGUI","launch_vehicle":null,"mission":null,"orbit_class":"UNKNOWN","rcs_meters":14.7367,"size_class":null,"mass_kg":null,"dimensions":null,"purposes":["comms"],"wikipedia_slug":null,"has_3d_model":false,"image_url":null,"decayed_at":null,"tle_current":{"epoch":"2026-09-19T20:11:17.810304Z","epoch_age_seconds":71437,"freshness":"FRESH","line1":"1 41945U 17007B   26262.84117836 -.00000273  00000+0  00000+0 0  9995","line2":"2 41945   0.0160 236.8181 0000585 227.0367 154.5532  1.00272981 35177","mean_motion":1.00272981,"eccentricity":5.85e-5,"inclination_deg":0.016,"raan_deg":236.8181,"arg_perigee_deg":227.0367,"mean_anomaly_deg":154.5532,"bstar":0,"rev_number":3517,"period_min":1436.0797750692,"perigee_km":35783.793065101,"apogee_km":35788.726299513,"semimajor_km":42164.396682307,"source":"CELESTRAK","updated_at":"2026-09-20T09:00:35.523095Z"}}}